Weather History for Al Udeid, Qatar

Change the Weather History Date:

Saturday, September 28, 2013

  Actual Average Record
Temperature  
Mean Temperature 86 °F -  
Max Temperature 96 °F - - ()
Min Temperature 77 °F - - ()
Cooling Degree Days 22    
Growing Degree Days 36 (Base 50)    
Moisture  
Dew Point 69 °F    
Average Humidity 60    
Maximum Humidity 80    
Minimum Humidity 33    
Precipitation  
Precipitation 0.00 in - - ()
Sea Level Pressure  
Sea Level Pressure 29.73 in    
Wind  
Wind Speed 8 mph ()    
Max Wind Speed 13 mph    
Max Gust Speed -    
Visibility 6.2 miles    
Events      
T = Trace of Precipitation, MM = Missing Value Source: Averaged Metar Reports

Daily Weather History Graph

Daily Weather History Graph

Search for Another Location

Airport:

Trip Planner

Search our weather history database for the weather conditions in past years. The results will help you decide how hot, cold, wet, or windy it might be!

Date:

Astronomy

Sep. 28, 2013 Rise Set
Actual Time 5:25 AM AST 5:24 PM AST
Civil Twilight 5:02 AM AST 5:47 PM AST
Nautical Twilight 4:36 AM AST 6:14 PM AST
Astronomical Twilight 4:09 AM AST 6:40 PM AST
Moon No Moon Rise 12:58 PM AST (9/28)
Length of Visible Light 12h 44m
Length of Day
11h 59m
Last Quarter, 39% of the Moon is Illuminated
Sep 28
Last Quarter
Oct 5
New
Oct 12
First Quarter
Oct 19
Full
Oct 27
Last Quarter

Hourly Weather History & Observations

Time (AST) Temp. Heat Index Dew Point Humidity Pressure Visibility Wind Dir Wind Speed Gust Speed Precip Events Conditions
12:55 AM 80.8 °F 84.1 °F 69.8 °F 69% 29.71 in 6.2 mi NW 9.2 mph - N/A   Clear
1:55 AM 79.9 °F - 69.4 °F 70% 29.70 in 6.2 mi WNW 6.9 mph - N/A   Clear
2:55 AM 77.4 °F - 69.1 °F 76% 29.71 in 6.2 mi West 9.2 mph - N/A   Clear
3:55 AM 77.4 °F - 70.5 °F 79% 29.71 in 6.2 mi West 8.1 mph - N/A   Clear
4:55 AM 77.4 °F - 70.9 °F 80% 29.73 in 6.2 mi WNW 9.2 mph - N/A   Clear
5:55 AM 77.5 °F - 68.7 °F 74% 29.75 in 6.2 mi WNW 8.1 mph - N/A   Clear
6:55 AM 80.8 °F 84.2 °F 70.0 °F 70% 29.76 in 6.2 mi WNW 10.4 mph - N/A   Clear
7:55 AM 85.3 °F 91.5 °F 72.1 °F 65% 29.77 in 6.2 mi NW 12.7 mph - N/A   Clear
8:55 AM 88.3 °F 95.4 °F 72.5 °F 59% 29.78 in 6.2 mi NW 9.2 mph - N/A   Clear
9:55 AM 90.7 °F 97.4 °F 71.6 °F 53% 29.76 in 6.2 mi NNW 9.2 mph - N/A   Clear
12:55 PM 95.0 °F 97.0 °F 64.4 °F 36% 29.70 in - ENE 10.4 mph - N/A   Partly Cloudy
1:55 PM 96.4 °F 97.9 °F 62.8 °F 33% 29.69 in 6.2 mi North - - N/A   Clear
2:55 PM 95.7 °F 97.7 °F 63.7 °F 35% 29.69 in 6.2 mi NNE 12.7 mph - N/A   Clear
3:55 PM 93.7 °F 94.9 °F 63.0 °F 36% 29.70 in 6.2 mi NE 11.5 mph - N/A   Clear
4:55 PM 91.2 °F 94.1 °F 66.6 °F 44% 29.71 in 6.2 mi NE 9.2 mph - N/A   Clear
5:55 PM 88.7 °F 93.9 °F 70.0 °F 54% 29.73 in 6.2 mi NE 9.2 mph - N/A   Clear
7:55 PM 86.5 °F 92.5 °F 71.8 °F 61% 29.75 in 6.2 mi NNE 6.9 mph - N/A   Clear
8:55 PM 85.6 °F 91.1 °F 71.4 °F 62% 29.75 in 6.2 mi North 9.2 mph - N/A   Clear
9:55 PM 84.7 °F 89.7 °F 71.1 °F 63% 29.75 in 6.2 mi North 10.4 mph - N/A   Clear
10:55 PM 83.1 °F 88.4 °F 72.1 °F 69% 29.74 in 6.2 mi North 10.4 mph - N/A   Clear
11:55 PM 81.9 °F 86.4 °F 71.8 °F 71% 29.73 in 6.2 mi North 5.8 mph - N/A   Clear